Location: *
(32.8667°N, 13.1833°E)
Time: 06:49:08
(UTC+00:00)

Cosmos 1242 Rocket - Pass Details

Date: 18 July 2019
Orbit: 448 x 489 km, 81.2° (Epoch: 25 August)

Event Time Altitude Azimuth Distance (km) Brightness Sun altitude
Exits shadow 18:51:51 - 141° (SE) 1,773 4.8 -7.6°
Reaches altitude 10° 18:52:15 10° 136° (SE) 1,652 4.6 -7.7°
Maximum altitude 18:54:50 19° 91° (E) 1,219 4.1 -8.1°
Drops below altitude 10° 18:57:27 10° 45° (NE) 1,673 5.2 -8.6°
Sets 19:00:00 0° 27° (NNE) 2,563 6.3 -9.0°
